Wind_Speed
22 21 20 19 18 19 18 17 17 16 16 16 15 15 16 16 16 18 20 11 6 5 3 3 4 10 10 8 12 10 4 3 7 7 7 17 3 5 15 20 27 14 21 33 33
22 22 21 20 20 20 20 19 18 17 15 14 14 14 14 15 16 19 16 15 12 11 6 6 3 15 6 6 7 9 6 18 14 18 5 18 13 16 9 19 27 13 17 42 42
22 22 21 21 21 21 21 19 19 18 15 14 13 12 11 11 12 3 4 2 9 10 9 9 4 9 12 8 9 6 8 10 21 35 30 18 20 15 15 15 21 28 42 45 43
24 24 23 23 23 22 21 20 18 16 14 14 12 10 8 5 3 2 4 4 1 4 9 8 10 8 5 6 21 5 17 8 9 32 13 15 19 12 17 29 26 26 43 50 49
26 25 25 24 24 23 22 20 18 17 15 11 9 6 5 5 11 7 4 6 4 4 5 9 10 7 5 5 10 4 7 13 10 8 29 31 20 16 20 20 24 32 46 46 50
28 26 25 25 24 24 21 20 20 17 11 6 4 4 3 3 2 4 1 6 7 10 8 9 7 5 10 8 2 10 10 18 23 14 10 11 15 10 33 8 28 40 47 45 48
29 28 26 25 24 22 18 17 17 15 9 4 3 4 6 7 4 4 5 5 7 9 10 9 8 11 18 6 9 13 7 7 12 19 14 17 11 11 33 23 29 35 37 36 43
29 29 27 26 24 19 17 16 10 10 7 4 3 4 6 2 4 7 7 8 7 9 6 3 6 17 5 9 9 4 4 5 8 7 13 3 11 21 29 15 27 35 39 42 47
29 29 28 26 23 17 19 16 7 8 5 2 4 4 3 2 4 4 4 12 9 11 7 3 10 4 5 3 5 5 4 6 9 6 6 6 9 14 24 18 7 33 41 42 45
29 29 28 25 18 18 21 8 6 4 7 6 5 6 1 3 4 2 2 4 5 7 6 11 3 1 4 5 4 6 3 5 7 11 11 9 8 8 23 14 2 24 33 41 44
28 28 28 24 12 16 21 6 11 2 21 9 11 11 19 7 9 10 2 4 3 5 2 6 4 8 12 10 12 5 6 12 16 16 4 11 8 10 15 11 1 18 23 31 37
28 28 27 23 10 12 15 15 14 12 13 22 19 19 17 13 8 7 6 5 5 5 2 4 6 13 11 8 11 10 10 13 12 8 2 8 9 6 6 9 12 9 9 36 43
27 27 26 22 6 11 10 14 12 13 5 14 5 9 9 8 6 5 15 7 5 4 7 6 11 12 6 12 12 11 6 6 5 4 4 2 8 7 11 11 9 6 9 8 5
25 25 25 24 7 10 3 12 9 13 3 6 3 4 7 3 5 3 18 6 2 4 4 5 4 7 9 7 4 2 3 3 9 7 6 5 5 8 5 9 5 7 12 24 23
24 24 22 23 19 10 13 10 6 4 4 3 4 4 3 6 3 4 17 9 5 7 2 8 7 11 10 8 2 8 3 4 4 6 4 8 3 8 6 8 8 9 21 12 16
23 21 24 21 19 10 16 12 4 4 2 2 6 3 1 4 7 3 8 12 4 2 2 8 10 4 10 9 4 5 3 7 5 4 3 8 5 4 6 7 8 10 19 24 18
22 20 20 19 15 11 11 5 4 4 5 5 4 3 3 5 5 7 5 4 5 3 6 7 3 4 10 9 10 10 6 4 5 5 6 2 4 7 6 5 3 7 22 28 30
23 20 18 13 5 5 8 4 3 4 4 2 5 8 2 3 7 2 1 4 6 3 2 3 8 6 9 4 5 8 5 4 6 4 8 5 2 3 6 7 4 14 26 28 30
25 20 13 2 3 5 4 4 5 2 7 3 5 4 5 9 4 6 4 3 3 3 6 2 5 5 8 6 3 10 7 5 2 2 3 2 4 4 3 4 10 15 19 24 28
25 20 8 7 5 5 5 4 4 5 6 4 4 4 4 8 8 10 4 5 3 8 5 0 3 3 5 7 2 2 6 6 4 4 4 5 1 4 6 7 8 11 14 14 21
19 10 4 2 3 1 2 5 6 11 21 3 1 3 4 2 2 5 6 5 4 2 7 2 3 7 5 4 5 9 6 4 2 3 2 2 5 6 4 3 7 7 16 14 16
10 4 12 10 0 1 2 4 14 19 26 8 5 6 3 6 3 2 3 2 16 2 1 3 5 1 6 6 10 6 4 3 3 7 3 3 6 1 3 1 3 8 15 13 12
18 8 7 8 1 2 6 6 7 6 9 3 2 4 1 2 4 4 5 10 19 2 6 3 2 4 9 7 7 3 5 3 2 2 5 2 6 3 4 2 3 5 12 10 11
7 3 6 5 3 3 6 6 8 15 6 15 4 3 4 4 2 4 5 5 16 8 14 7 3 5 5 6 5 7 13 10 1 1 4 5 4 3 5 6 5 7 10 9 4
3 4 6 3 6 7 2 4 6 7 3 6 7 6 5 4 5 6 6 8 5 7 4 4 1 1 4 5 5 9 12 13 10 9 4 5 4 4 6 6 9 11 8 5 4
4 4 7 14 10 6 3 4 5 10 4 11 3 5 8 6 3 3 3 3 4 6 2 3 2 1 3 7 8 10 9 7 5 4 2 3 4 4 10 5 2 6 7 9 4
3 7 4 6 4 3 2 6 14 12 10 10 1 3 3 3 5 3 5 6 6 3 4 3 3 2 6 7 8 6 3 3 2 2 3 3 5 6 3 4 5 9 7 9 6
Wind_Direction
356 355 353 350 346 342 337 332 327 319 312 307 301 297 295 291 287 284 275 284 276 254 255 280 148 180 183 220 196 140 77 58 187 233 243 276 208 61 66 16 290 221 171 169 171
357 355 352 349 345 341 337 333 327 321 315 308 300 296 296 293 294 282 293 268 249 237 249 283 223 172 200 239 209 176 142 196 206 226 252 267 326 118 107 178 277 174 160 161 170
359 356 352 349 345 342 338 334 327 322 318 309 301 296 293 299 309 302 14 276 221 233 242 264 200 183 218 243 235 217 230 188 218 224 230 252 275 284 159 211 223 153 156 164 174
359 355 352 350 346 343 341 335 333 325 321 312 306 296 286 291 243 75 356 18 61 253 246 225 198 205 229 221 274 262 276 201 258 227 230 243 257 267 217 232 208 185 170 169 174
0 356 353 350 347 344 341 340 335 327 321 312 306 288 275 255 256 242 14 334 284 271 266 211 203 213 219 243 295 254 285 303 328 272 219 244 262 258 276 273 189 172 170 176 178
360 356 353 350 346 344 345 343 336 333 336 322 298 274 244 251 132 149 346 349 279 265 254 204 208 225 275 255 235 277 314 324 322 310 264 226 259 253 286 254 171 172 177 183 181
358 356 353 350 345 347 349 345 333 333 332 328 298 279 257 253 81 200 279 330 344 344 245 238 253 273 303 309 332 337 350 331 299 308 304 316 308 280 283 279 182 174 180 184 192
357 355 353 351 347 350 349 334 327 344 2 17 1 304 258 86 253 286 276 267 301 299 297 213 263 287 292 320 358 351 24 16 292 265 268 138 271 278 295 299 212 184 182 191 193
355 355 355 352 347 355 350 341 332 348 22 25 1 331 284 349 288 53 244 267 271 274 266 290 279 274 328 59 2 346 249 259 302 271 267 158 261 281 306 328 296 188 189 192 195
352 354 355 354 352 3 5 11 358 348 336 308 277 314 146 358 144 295 285 266 285 306 271 245 267 27 20 76 236 239 237 274 263 282 306 289 261 280 307 340 355 194 192 192 195
349 352 354 357 7 7 17 39 15 334 320 266 276 277 277 330 302 290 249 192 281 274 247 293 108 241 239 210 231 223 248 265 273 278 267 278 281 283 300 333 131 186 193 214 213
346 347 351 0 17 15 31 46 18 332 301 296 278 261 269 286 286 272 181 198 190 236 4 353 258 247 244 230 234 243 260 271 282 258 73 308 297 304 330 314 317 321 195 212 215
343 343 347 2 9 24 53 27 360 338 302 297 242 246 253 245 250 286 191 207 196 228 247 196 246 270 256 262 249 256 229 246 265 310 315 30 328 330 311 315 41 44 359 76 73
340 340 343 351 355 347 343 342 349 331 45 281 219 270 200 200 286 252 206 213 222 242 286 246 262 319 311 308 197 323 245 341 321 19 309 90 287 308 286 295 336 351 355 47 60
337 335 334 338 330 319 332 334 344 324 39 178 196 189 184 191 267 249 198 218 227 250 74 254 302 306 303 256 317 249 243 294 298 322 21 316 72 270 18 335 325 330 2 57 56
332 333 322 329 326 319 327 331 321 40 348 262 152 211 96 226 257 260 201 223 279 283 197 254 293 291 263 289 263 258 5 19 37 75 10 268 132 325 350 297 333 358 5 353 6
331 327 315 318 323 327 318 326 34 106 319 357 5 26 231 255 265 176 211 196 207 100 296 321 284 283 23 19 351 29 44 329 347 357 234 258 65 223 269 322 322 310 357 7 1
335 325 310 313 341 342 350 47 96 269 350 45 358 338 333 296 285 221 203 235 228 163 137 146 321 15 356 70 250 283 152 159 275 243 272 334 254 218 226 254 327 19 27 21 24
337 334 325 301 53 22 2 65 210 284 322 24 8 348 332 353 303 13 336 253 300 126 144 106 275 319 48 343 19 324 352 229 230 22 61 240 353 316 310 338 3 20 31 30 16
341 342 35 119 78 24 63 253 273 324 317 20 47 57 344 332 9 8 346 330 74 30 70 246 323 299 318 18 18 100 274 346 8 339 306 311 204 240 319 326 335 359 2 14 0
343 340 100 76 61 283 143 242 292 290 346 65 54 294 281 282 335 324 310 354 48 13 71 86 92 296 26 35 303 338 342 7 113 147 202 240 262 219 227 285 315 338 2 10 37
356 342 163 171 328 305 185 224 310 311 314 247 182 210 256 296 285 311 305 292 346 332 102 206 138 249 253 262 268 189 258 113 93 298 246 177 268 116 111 333 335 20 0 53 58
335 291 222 242 212 289 300 300 295 329 328 281 145 106 117 347 350 320 329 311 342 268 187 200 1 6 346 349 354 22 344 9 190 89 253 174 275 96 40 19 237 330 13 50 86
331 342 332 246 46 35 9 303 332 327 298 1 315 61 18 327 208 254 307 333 46 42 43 43 87 144 184 228 254 309 322 323 75 355 264 231 271 274 317 310 329 2 25 48 96
284 271 11 329 334 331 346 274 316 322 290 347 339 326 264 258 291 337 8 359 9 50 42 100 155 13 266 257 289 295 309 320 316 281 236 269 206 286 281 288 312 321 319 324 333
286 351 332 303 317 354 338 293 310 330 325 302 90 319 34 58 15 7 28 67 280 331 30 4 254 312 274 290 280 288 315 331 327 352 16 295 281 240 299 309 311 340 348 13 57
228 274 308 289 333 28 262 340 319 319 315 323 181 96 87 126 14 352 328 296 234 226 292 174 167 60 271 275 312 309 252 314 249 245 245 275 253 333 291 306 2 338 32 33 80
Height
1528 1525 1522 1520 1517 1514 1512 1509 1507 1504 1502 1500 1499 1498 1497 1497 1496 1495 1494 1497 1499 1499 1501 1502 1504 1506 1508 1508 1511 1514 1531 1543 1535 1518 1494 1486 1488 1486 1492 1499 1498 1484 1478 1483 1489
1528 1525 1522 1519 1516 1512 1509 1507 1504 1501 1499 1497 1496 1495 1494 1493 1492 1490 1491 1492 1494 1496 1499 1500 1502 1505 1506 1504 1505 1509 1525 1523 1509 1497 1491 1483 1480 1485 1494 1495 1486 1482 1482 1485 1486
1528 1525 1521 1518 1514 1510 1507 1504 1501 1498 1496 1494 1493 1493 1492 1491 1490 1486 1487 1487 1490 1493 1496 1498 1501 1504 1505 1502 1498 1497 1502 1499 1498 1490 1487 1485 1484 1485 1488 1491 1482 1477 1479 1484 1486
1527 1524 1520 1516 1512 1508 1505 1502 1498 1495 1494 1491 1490 1490 1490 1490 1493 1486 1486 1487 1488 1490 1493 1495 1499 1503 1501 1500 1493 1497 1489 1490 1488 1487 1491 1487 1482 1479 1478 1471 1472 1471 1471 1478 1480
1526 1522 1519 1514 1510 1506 1502 1499 1496 1493 1490 1489 1488 1487 1488 1489 1484 1484 1486 1487 1488 1489 1490 1492 1495 1498 1499 1494 1492 1492 1486 1485 1484 1482 1483 1481 1481 1475 1468 1467 1466 1471 1475 1477 1476
1526 1521 1517 1513 1508 1504 1499 1496 1492 1490 1488 1487 1486 1486 1487 1488 1482 1483 1485 1486 1486 1487 1488 1490 1491 1493 1494 1493 1493 1489 1486 1482 1477 1477 1479 1480 1476 1475 1458 1463 1466 1466 1469 1473 1472
1525 1520 1516 1511 1506 1502 1499 1495 1491 1488 1487 1485 1485 1484 1485 1482 1482 1483 1484 1485 1485 1485 1486 1488 1489 1493 1492 1490 1487 1485 1487 1483 1477 1476 1474 1474 1472 1466 1459 1461 1462 1464 1468 1472 1472
1524 1519 1514 1510 1505 1501 1498 1494 1491 1488 1486 1485 1485 1484 1480 1480 1481 1481 1482 1482 1484 1484 1484 1486 1487 1489 1488 1488 1487 1488 1490 1502 1474 1475 1470 1475 1484 1457 1455 1454 1456 1457 1459 1462 1466
1523 1518 1513 1509 1504 1500 1496 1492 1490 1488 1487 1486 1486 1484 1480 1480 1480 1480 1480 1480 1482 1483 1484 1485 1486 1486 1486 1491 1502 1497 1510 1499 1485 1466 1468 1469 1474 1452 1451 1449 1447 1451 1452 1457 1460
1523 1518 1513 1508 1504 1500 1496 1492 1490 1489 1488 1487 1486 1487 1480 1480 1479 1479 1479 1480 1481 1481 1482 1484 1484 1487 1491 1501 1521 1505 1502 1496 1492 1469 1467 1468 1466 1455 1447 1447 1447 1448 1452 1450 1452
1523 1518 1513 1509 1505 1501 1497 1492 1494 1492 1488 1486 1485 1483 1479 1478 1479 1479 1479 1480 1480 1481 1484 1481 1491 1498 1487 1487 1484 1488 1492 1493 1478 1466 1469 1465 1464 1453 1445 1444 1446 1449 1456 1457 1456
1522 1518 1513 1509 1506 1503 1501 1500 1504 1504 1491 1480 1478 1479 1476 1478 1478 1477 1479 1481 1480 1484 1481 1487 1495 1476 1473 1477 1480 1483 1490 1487 1472 1461 1462 1465 1463 1450 1446 1444 1444 1443 1450 1447 1450
1522 1517 1512 1509 1506 1505 1502 1503 1504 1503 1498 1478 1476 1476 1475 1477 1476 1475 1478 1477 1478 1483 1483 1492 1480 1468 1472 1473 1476 1477 1486 1481 1475 1463 1459 1462 1471 1459 1445 1442 1442 1442 1443 1446 1452
1522 1517 1512 1508 1507 1505 1503 1502 1501 1500 1507 1485 1476 1475 1475 1475 1474 1472 1474 1475 1475 1478 1476 1478 1468 1470 1470 1469 1466 1477 1460 1462 1465 1475 1493 1464 1503 1467 1452 1446 1440 1439 1440 1444 1446
1521 1516 1512 1509 1507 1505 1504 1500 1498 1498 1518 1477 1475 1474 1473 1475 1473 1470 1471 1471 1474 1475 1476 1482 1472 1471 1472 1466 1458 1469 1454 1458 1462 1474 1479 1471 1491 1472 1457 1457 1448 1440 1440 1441 1442
1518 1515 1510 1509 1505 1504 1501 1498 1497 1507 1508 1479 1472 1472 1474 1473 1471 1470 1470 1470 1470 1470 1471 1472 1465 1465 1459 1455 1454 1452 1457 1467 1473 1487 1507 1479 1488 1491 1485 1475 1455 1447 1444 1443 1445
1516 1513 1509 1507 1504 1502 1499 1498 1509 1515 1478 1484 1480 1475 1477 1476 1471 1469 1470 1473 1481 1489 1490 1475 1470 1463 1460 1464 1457 1464 1480 1507 1510 1513 1511 1476 1489 1495 1474 1464 1463 1457 1452 1453 1448
1514 1509 1506 1504 1503 1501 1499 1500 1513 1493 1487 1479 1480 1476 1480 1472 1468 1465 1469 1477 1471 1474 1490 1493 1495 1469 1464 1473 1478 1473 1478 1505 1512 1517 1495 1473 1487 1483 1468 1464 1462 1457 1458 1451 1449
1511 1506 1501 1501 1503 1501 1501 1516 1509 1493 1487 1484 1481 1485 1484 1476 1475 1469 1469 1472 1466 1464 1486 1491 1489 1465 1465 1466 1469 1477 1486 1469 1485 1485 1500 1489 1478 1469 1464 1460 1456 1454 1456 1450 1447
1509 1504 1502 1502 1503 1503 1505 1513 1499 1489 1486 1483 1493 1490 1498 1491 1488 1485 1479 1470 1472 1468 1466 1478 1495 1474 1467 1464 1468 1476 1468 1486 1492 1501 1504 1495 1486 1485 1467 1461 1456 1452 1453 1450 1444
1511 1506 1504 1504 1504 1504 1515 1510 1496 1489 1490 1486 1490 1492 1491 1491 1486 1489 1482 1474 1469 1471 1470 1476 1488 1487 1473 1481 1485 1479 1487 1483 1489 1497 1505 1513 1496 1465 1464 1462 1459 1455 1453 1446 1438
1512 1511 1505 1506 1507 1506 1510 1500 1495 1489 1484 1483 1481 1484 1487 1486 1487 1485 1484 1476 1472 1469 1475 1473 1490 1500 1487 1473 1469 1472 1477 1486 1503 1500 1496 1499 1491 1456 1462 1462 1462 1457 1457 1449 1440
1514 1509 1504 1505 1513 1511 1503 1499 1495 1489 1485 1481 1480 1482 1483 1487 1493 1481 1478 1472 1471 1470 1474 1472 1493 1510 1501 1487 1472 1476 1475 1477 1485 1493 1493 1500 1488 1465 1462 1463 1461 1456 1451 1449 1447
1518 1516 1505 1504 1506 1507 1507 1502 1498 1491 1487 1484 1481 1478 1482 1486 1483 1485 1481 1474 1472 1472 1473 1474 1494 1501 1517 1501 1490 1490 1479 1474 1481 1498 1488 1487 1474 1463 1463 1460 1457 1453 1448 1445 1445
1520 1516 1513 1515 1508 1508 1507 1503 1499 1495 1487 1485 1485 1483 1483 1489 1484 1486 1481 1479 1475 1477 1479 1482 1495 1488 1490 1485 1481 1481 1477 1473 1477 1474 1479 1469 1469 1464 1461 1458 1454 1451 1448 1444 1440
1520 1519 1515 1513 1509 1508 1505 1503 1500 1494 1492 1487 1488 1486 1485 1492 1489 1489 1486 1487 1485 1479 1480 1481 1493 1487 1491 1482 1478 1478 1474 1472 1469 1468 1467 1468 1467 1461 1457 1455 1453 1448 1444 1440 1437
1518 1518 1517 1511 1508 1511 1507 1507 1502 1497 1489 1488 1484 1484 1486 1485 1484 1484 1483 1481 1481 1482 1482 1486 1490 1495 1498 1486 1483 1489 1480 1477 1474 1472 1471 1473 1463 1459 1456 1455 1455 1450 1446 1444 1439